Year,Month,Day,Hour,Minute,Value (Times are PST for temperature in C)
2015,07,03,00,00,19.80
2015,07,03,00,01,19.80
2015,07,03,00,02,19.70
2015,07,03,00,03,19.70
2015,07,03,00,04,19.60
2015,07,03,00,05,19.60
2015,07,03,00,06,19.60
2015,07,03,00,07,19.50
2015,07,03,00,08,19.50
2015,07,03,00,09,19.50
2015,07,03,00,10,19.40
2015,07,03,00,11,19.40
2015,07,03,00,12,19.30
2015,07,03,00,13,19.30
2015,07,03,00,14,19.20
2015,07,03,00,15,19.20
2015,07,03,00,16,19.10
2015,07,03,00,17,19.10
2015,07,03,00,18,19.10
2015,07,03,00,19,19.10
2015,07,03,00,20,18.90
2015,07,03,00,21,18.90
2015,07,03,00,22,18.90
2015,07,03,00,23,18.90
2015,07,03,00,24,18.90
2015,07,03,00,25,18.90
2015,07,03,00,26,18.90
2015,07,03,00,27,18.80
2015,07,03,00,28,18.80
2015,07,03,00,29,18.70
2015,07,03,00,30,18.70
2015,07,03,00,31,18.70
2015,07,03,00,32,18.60
2015,07,03,00,33,18.60
2015,07,03,00,34,18.50
2015,07,03,00,35,18.50
2015,07,03,00,36,18.50
2015,07,03,00,37,18.40
2015,07,03,00,38,18.40
2015,07,03,00,39,18.40
2015,07,03,00,40,18.30
2015,07,03,00,41,18.30
2015,07,03,00,42,18.30
2015,07,03,00,43,18.30
2015,07,03,00,44,18.30
2015,07,03,00,45,18.20
2015,07,03,00,46,18.20
2015,07,03,00,47,18.20
2015,07,03,00,48,18.20
2015,07,03,00,49,18.20
2015,07,03,00,50,18.20
2015,07,03,00,51,18.10
2015,07,03,00,52,18.10
2015,07,03,00,53,18.00
2015,07,03,00,54,17.90
2015,07,03,00,55,17.90
2015,07,03,00,56,17.90
2015,07,03,00,57,17.90
2015,07,03,00,58,17.80
2015,07,03,00,59,17.80
2015,07,03,01,00,17.70
2015,07,03,01,01,17.70
2015,07,03,01,02,17.60
2015,07,03,01,03,17.60
2015,07,03,01,04,17.60
2015,07,03,01,05,17.60
2015,07,03,01,06,17.60
2015,07,03,01,07,17.60
2015,07,03,01,08,17.60
2015,07,03,01,09,17.50
2015,07,03,01,10,17.50
2015,07,03,01,11,17.50
2015,07,03,01,12,17.50
2015,07,03,01,13,17.40
2015,07,03,01,14,17.40
2015,07,03,01,15,17.30
2015,07,03,01,16,17.30
2015,07,03,01,17,17.30
2015,07,03,01,18,17.30
2015,07,03,01,19,17.30
2015,07,03,01,20,17.20
2015,07,03,01,21,17.20
2015,07,03,01,22,17.20
2015,07,03,01,23,17.20
2015,07,03,01,24,17.20
2015,07,03,01,25,17.20
2015,07,03,01,26,17.10
2015,07,03,01,27,17.10
2015,07,03,01,28,17.10
2015,07,03,01,29,17.10
2015,07,03,01,30,17.10
2015,07,03,01,31,17.10
2015,07,03,01,32,17.00
2015,07,03,01,33,17.00
2015,07,03,01,34,17.00
2015,07,03,01,35,17.00
2015,07,03,01,36,17.00
2015,07,03,01,37,17.00
2015,07,03,01,38,16.90
2015,07,03,01,39,16.90
2015,07,03,01,40,16.90
2015,07,03,01,41,16.80
2015,07,03,01,42,16.80
2015,07,03,01,43,16.80
2015,07,03,01,44,16.70
2015,07,03,01,45,16.70
2015,07,03,01,46,16.70
2015,07,03,01,47,16.60
2015,07,03,01,48,16.60
2015,07,03,01,49,16.40
2015,07,03,01,50,16.40
2015,07,03,01,51,16.40
2015,07,03,01,52,16.30
2015,07,03,01,53,16.20
2015,07,03,01,54,16.10
2015,07,03,01,55,16.10
2015,07,03,01,56,16.10
2015,07,03,01,57,16.10
2015,07,03,01,58,15.90
2015,07,03,01,59,15.90
2015,07,03,02,00,15.90
2015,07,03,02,01,15.90
2015,07,03,02,02,15.90
2015,07,03,02,03,15.90
2015,07,03,02,04,16.10
2015,07,03,02,05,16.10
2015,07,03,02,06,16.10
2015,07,03,02,07,16.10
2015,07,03,02,08,16.10
2015,07,03,02,09,16.10
2015,07,03,02,10,16.10
2015,07,03,02,11,16.10
2015,07,03,02,12,16.10
2015,07,03,02,13,16.10
2015,07,03,02,14,16.10
2015,07,03,02,15,16.10
2015,07,03,02,16,16.10
2015,07,03,02,17,16.10
2015,07,03,02,18,16.10
2015,07,03,02,19,16.10
2015,07,03,02,20,16.10
2015,07,03,02,21,16.00
2015,07,03,02,22,15.90
2015,07,03,02,23,15.90
2015,07,03,02,24,15.90
2015,07,03,02,25,15.90
2015,07,03,02,26,15.90
2015,07,03,02,27,15.90
2015,07,03,02,28,15.80
2015,07,03,02,29,15.80
2015,07,03,02,30,15.80
2015,07,03,02,31,15.80
2015,07,03,02,32,15.80
2015,07,03,02,33,15.80
2015,07,03,02,34,15.80
2015,07,03,02,35,15.80
2015,07,03,02,36,15.80
2015,07,03,02,37,15.80
2015,07,03,02,38,15.80
2015,07,03,02,39,15.80
2015,07,03,02,40,15.80
2015,07,03,02,41,15.80
2015,07,03,02,42,15.80
2015,07,03,02,43,15.80
2015,07,03,02,44,15.80
2015,07,03,02,45,15.70
2015,07,03,02,46,15.70
2015,07,03,02,47,15.60
2015,07,03,02,48,15.60
2015,07,03,02,49,15.50
2015,07,03,02,50,15.50
2015,07,03,02,51,15.50
2015,07,03,02,52,15.50
2015,07,03,02,53,15.40
2015,07,03,02,54,15.40
2015,07,03,02,55,15.40
2015,07,03,02,56,15.40
2015,07,03,02,57,15.40
2015,07,03,02,58,15.40
2015,07,03,02,59,15.40
2015,07,03,03,00,15.40
2015,07,03,03,01,15.40
2015,07,03,03,02,15.30
2015,07,03,03,03,15.30
2015,07,03,03,04,15.30
2015,07,03,03,05,15.30
2015,07,03,03,06,15.20
2015,07,03,03,07,15.20
2015,07,03,03,08,15.20
2015,07,03,03,09,15.10
2015,07,03,03,10,15.10
2015,07,03,03,11,15.00
2015,07,03,03,12,15.00
2015,07,03,03,13,14.90
2015,07,03,03,14,14.90
2015,07,03,03,15,14.90
2015,07,03,03,16,14.80
2015,07,03,03,17,14.80
2015,07,03,03,18,14.80
2015,07,03,03,19,14.80
2015,07,03,03,20,14.80
2015,07,03,03,21,14.80
2015,07,03,03,22,14.80
2015,07,03,03,23,14.80
2015,07,03,03,24,14.80
2015,07,03,03,25,14.80
2015,07,03,03,26,14.80
2015,07,03,03,27,14.80
2015,07,03,03,28,14.80
2015,07,03,03,29,14.80
2015,07,03,03,30,14.80
2015,07,03,03,31,14.80
2015,07,03,03,32,14.80
2015,07,03,03,33,14.80
2015,07,03,03,34,14.80
2015,07,03,03,35,14.80
2015,07,03,03,36,14.80
2015,07,03,03,37,14.80
2015,07,03,03,38,14.80
2015,07,03,03,39,14.80
2015,07,03,03,40,14.80
2015,07,03,03,41,14.80
2015,07,03,03,42,14.80
2015,07,03,03,43,14.80
2015,07,03,03,44,14.80
2015,07,03,03,45,14.80
2015,07,03,03,46,14.80
2015,07,03,03,47,14.80
2015,07,03,03,48,14.80
2015,07,03,03,49,14.80
2015,07,03,03,50,14.80
2015,07,03,03,51,14.80
2015,07,03,03,52,14.80
2015,07,03,03,53,14.80
2015,07,03,03,54,14.80
2015,07,03,03,55,14.80
2015,07,03,03,56,14.80
2015,07,03,03,57,14.80
2015,07,03,03,58,14.80
2015,07,03,03,59,14.80
2015,07,03,04,00,14.80
2015,07,03,04,01,14.80
2015,07,03,04,02,14.80
2015,07,03,04,03,14.80
2015,07,03,04,04,14.80
2015,07,03,04,05,14.80
2015,07,03,04,06,14.80
2015,07,03,04,07,14.80
2015,07,03,04,08,14.80
2015,07,03,04,09,14.80
2015,07,03,04,10,14.80
2015,07,03,04,11,14.90
2015,07,03,04,12,14.90
2015,07,03,04,13,14.90
2015,07,03,04,14,14.90
2015,07,03,04,15,14.90
2015,07,03,04,16,14.90
2015,07,03,04,17,15.00
2015,07,03,04,18,15.00
2015,07,03,04,19,15.00
2015,07,03,04,20,15.10
2015,07,03,04,21,15.10
2015,07,03,04,22,15.10
2015,07,03,04,23,15.10
2015,07,03,04,24,15.20
2015,07,03,04,25,15.20
2015,07,03,04,26,15.20
2015,07,03,04,27,15.20
2015,07,03,04,28,15.20
2015,07,03,04,29,15.20
2015,07,03,04,30,15.20
2015,07,03,04,31,15.20
2015,07,03,04,32,15.30
2015,07,03,04,33,15.30
2015,07,03,04,34,15.30
2015,07,03,04,35,15.30
2015,07,03,04,36,15.30
2015,07,03,04,37,15.30
2015,07,03,04,38,15.30
2015,07,03,04,39,15.30
2015,07,03,04,40,15.30
2015,07,03,04,41,15.30
2015,07,03,04,42,15.30
2015,07,03,04,43,15.30
2015,07,03,04,44,15.30
2015,07,03,04,45,15.30
2015,07,03,04,46,15.30
2015,07,03,04,47,15.30
2015,07,03,04,48,15.30
2015,07,03,04,49,15.30
2015,07,03,04,50,15.30
2015,07,03,04,51,15.30
2015,07,03,04,52,15.30
2015,07,03,04,53,15.30
2015,07,03,04,54,15.30
2015,07,03,04,55,15.30
2015,07,03,04,56,15.30
2015,07,03,04,57,15.20
2015,07,03,04,58,15.20
2015,07,03,04,59,15.20
2015,07,03,05,00,15.20
2015,07,03,05,01,15.10
2015,07,03,05,02,15.10
2015,07,03,05,03,15.10
2015,07,03,05,04,15.10
2015,07,03,05,05,15.00
2015,07,03,05,06,15.00
2015,07,03,05,07,14.90
2015,07,03,05,08,14.80
2015,07,03,05,09,14.80
2015,07,03,05,10,14.80
2015,07,03,05,11,14.80
2015,07,03,05,12,14.80
2015,07,03,05,13,14.70
2015,07,03,05,14,14.70
2015,07,03,05,15,14.70
2015,07,03,05,16,14.70
2015,07,03,05,17,14.60
2015,07,03,05,18,14.60
2015,07,03,05,19,14.60
2015,07,03,05,20,14.60
2015,07,03,05,21,14.60
2015,07,03,05,22,14.60
2015,07,03,05,23,14.50
2015,07,03,05,24,14.50
2015,07,03,05,25,14.50
2015,07,03,05,26,14.50
2015,07,03,05,27,14.50
2015,07,03,05,28,14.50
2015,07,03,05,29,14.50
2015,07,03,05,30,14.50
2015,07,03,05,31,14.40
2015,07,03,05,32,14.40
2015,07,03,05,33,14.40
2015,07,03,05,34,14.40
2015,07,03,05,35,14.40
2015,07,03,05,36,14.40
2015,07,03,05,37,14.40
2015,07,03,05,38,14.40
2015,07,03,05,39,14.30
2015,07,03,05,40,14.30
2015,07,03,05,41,14.30
2015,07,03,05,42,14.30
2015,07,03,05,43,14.30
2015,07,03,05,44,14.30
2015,07,03,05,45,14.30
2015,07,03,05,46,14.30
2015,07,03,05,47,14.30
2015,07,03,05,48,14.30
2015,07,03,05,49,14.30
2015,07,03,05,50,14.30
2015,07,03,05,51,14.30
2015,07,03,05,52,14.30
2015,07,03,05,53,14.30
2015,07,03,05,54,14.20
2015,07,03,05,55,14.20
2015,07,03,05,56,14.20
2015,07,03,05,57,14.20
2015,07,03,05,58,14.20
2015,07,03,05,59,14.20
2015,07,03,06,00,14.30
2015,07,03,06,01,14.30
2015,07,03,06,02,14.30
2015,07,03,06,03,14.30
2015,07,03,06,04,14.30
2015,07,03,06,05,14.40
2015,07,03,06,06,14.40
2015,07,03,06,07,14.40
2015,07,03,06,08,14.50
2015,07,03,06,09,14.50
2015,07,03,06,10,14.60
2015,07,03,06,11,14.60
2015,07,03,06,12,14.70
2015,07,03,06,13,14.80
2015,07,03,06,14,14.80
2015,07,03,06,15,14.90
2015,07,03,06,16,14.90
2015,07,03,06,17,15.00
2015,07,03,06,18,15.10
2015,07,03,06,19,15.10
2015,07,03,06,20,15.20
2015,07,03,06,21,15.20
2015,07,03,06,22,15.30
2015,07,03,06,23,15.30
2015,07,03,06,24,15.30
2015,07,03,06,25,15.40
2015,07,03,06,26,15.40
2015,07,03,06,27,15.50
2015,07,03,06,28,15.50
2015,07,03,06,29,15.60
2015,07,03,06,30,15.60
2015,07,03,06,31,15.60
2015,07,03,06,32,15.70
2015,07,03,06,33,15.80
2015,07,03,06,34,15.80
2015,07,03,06,35,15.80
2015,07,03,06,36,15.90
2015,07,03,06,37,16.00
2015,07,03,06,38,16.10
2015,07,03,06,39,16.20
2015,07,03,06,40,16.30
2015,07,03,06,41,16.30
2015,07,03,06,42,16.40
2015,07,03,06,43,16.50
2015,07,03,06,44,16.60
2015,07,03,06,45,16.70
2015,07,03,06,46,16.70
2015,07,03,06,47,16.80
2015,07,03,06,48,16.80
2015,07,03,06,49,16.90
2015,07,03,06,50,17.00
2015,07,03,06,51,17.10
2015,07,03,06,52,17.20
2015,07,03,06,53,17.30
2015,07,03,06,54,17.30
2015,07,03,06,55,17.40
2015,07,03,06,56,17.40
2015,07,03,06,57,17.50
2015,07,03,06,58,17.50
2015,07,03,06,59,17.60
2015,07,03,07,00,17.60
2015,07,03,07,01,17.60
2015,07,03,07,02,17.70
2015,07,03,07,03,17.80
2015,07,03,07,04,17.80
2015,07,03,07,05,17.90
2015,07,03,07,06,17.90
2015,07,03,07,07,18.00
2015,07,03,07,08,18.20
2015,07,03,07,09,18.20
2015,07,03,07,10,18.40
2015,07,03,07,11,18.50
2015,07,03,07,12,18.60
2015,07,03,07,13,18.70
2015,07,03,07,14,18.70
2015,07,03,07,15,18.90
2015,07,03,07,16,19.00
2015,07,03,07,17,19.10
2015,07,03,07,18,19.20
2015,07,03,07,19,19.30
2015,07,03,07,20,19.40
2015,07,03,07,21,19.40
2015,07,03,07,22,19.40
2015,07,03,07,23,19.50
2015,07,03,07,24,19.50
2015,07,03,07,25,19.40
2015,07,03,07,26,19.40
2015,07,03,07,27,19.50
2015,07,03,07,28,19.50
2015,07,03,07,29,19.60
2015,07,03,07,30,19.60
2015,07,03,07,31,19.70
2015,07,03,07,32,19.90
2015,07,03,07,33,19.90
2015,07,03,07,34,20.10
2015,07,03,07,35,20.20
2015,07,03,07,36,20.20
2015,07,03,07,37,20.30
2015,07,03,07,38,20.40
2015,07,03,07,39,20.50
2015,07,03,07,40,20.50
2015,07,03,07,41,20.60
2015,07,03,07,42,20.70
2015,07,03,07,43,20.80
2015,07,03,07,44,20.80
2015,07,03,07,45,20.90
2015,07,03,07,46,21.00
2015,07,03,07,47,21.00
2015,07,03,07,48,21.10
2015,07,03,07,49,21.10
2015,07,03,07,50,21.20
2015,07,03,07,51,21.30
2015,07,03,07,52,21.30
2015,07,03,07,53,21.30
2015,07,03,07,54,21.30
2015,07,03,07,55,21.40
2015,07,03,07,56,21.50
2015,07,03,07,57,21.50
2015,07,03,07,58,21.40
2015,07,03,07,59,21.40
2015,07,03,08,00,21.40
2015,07,03,08,01,21.40
2015,07,03,08,02,21.40
2015,07,03,08,03,21.40
2015,07,03,08,04,21.40
2015,07,03,08,05,21.50
2015,07,03,08,06,21.60
2015,07,03,08,07,21.60
2015,07,03,08,08,21.60
2015,07,03,08,09,21.60
2015,07,03,08,10,21.70
2015,07,03,08,11,21.70
2015,07,03,08,12,21.70
2015,07,03,08,13,21.70
2015,07,03,08,14,21.70
2015,07,03,08,15,21.80
2015,07,03,08,16,21.80
2015,07,03,08,17,21.80
2015,07,03,08,18,21.80
2015,07,03,08,19,21.80
2015,07,03,08,20,21.70
2015,07,03,08,21,21.70
2015,07,03,08,22,21.80
2015,07,03,08,23,21.80
2015,07,03,08,24,21.80
2015,07,03,08,25,21.80
2015,07,03,08,26,21.90
2015,07,03,08,27,21.90
2015,07,03,08,28,22.00
2015,07,03,08,29,21.90
2015,07,03,08,30,21.90
2015,07,03,08,31,21.90
2015,07,03,08,32,21.80
2015,07,03,08,33,21.70
2015,07,03,08,34,21.70
2015,07,03,08,35,21.70
2015,07,03,08,36,21.70
2015,07,03,08,37,21.80
2015,07,03,08,38,21.90
2015,07,03,08,39,21.90
2015,07,03,08,40,21.90
2015,07,03,08,41,21.90
2015,07,03,08,42,21.80
2015,07,03,08,43,21.80
2015,07,03,08,44,21.80
2015,07,03,08,45,21.80
2015,07,03,08,46,21.80
2015,07,03,08,47,21.80
2015,07,03,08,48,21.80
2015,07,03,08,49,21.80
2015,07,03,08,50,21.80
2015,07,03,08,51,21.70
2015,07,03,08,52,21.70
2015,07,03,08,53,21.80
2015,07,03,08,54,21.90
2015,07,03,08,55,22.00
2015,07,03,08,56,22.10
2015,07,03,08,57,22.20
2015,07,03,08,58,22.30
2015,07,03,08,59,22.40
2015,07,03,09,00,22.40
2015,07,03,09,01,22.30
2015,07,03,09,02,22.30
2015,07,03,09,03,22.30
2015,07,03,09,04,22.30
2015,07,03,09,05,22.30
2015,07,03,09,06,22.30
2015,07,03,09,07,22.40
2015,07,03,09,08,22.50
2015,07,03,09,09,22.50
2015,07,03,09,10,22.60
2015,07,03,09,11,22.60
2015,07,03,09,12,22.70
2015,07,03,09,13,22.80
2015,07,03,09,14,22.80
2015,07,03,09,15,22.80
2015,07,03,09,16,22.80
2015,07,03,09,17,22.80
2015,07,03,09,18,22.90
2015,07,03,09,19,23.00
2015,07,03,09,20,23.10
2015,07,03,09,21,23.10
2015,07,03,09,22,23.10
2015,07,03,09,23,23.20
2015,07,03,09,24,23.10
2015,07,03,09,25,23.10
2015,07,03,09,26,23.10
2015,07,03,09,27,23.10
2015,07,03,09,28,23.10
2015,07,03,09,29,23.20
2015,07,03,09,30,23.30
2015,07,03,09,31,23.30
2015,07,03,09,32,23.40
2015,07,03,09,33,23.40
2015,07,03,09,34,23.50
2015,07,03,09,35,23.60
2015,07,03,09,36,23.70
2015,07,03,09,37,23.70
2015,07,03,09,38,23.70
2015,07,03,09,39,23.70
2015,07,03,09,40,23.70
2015,07,03,09,41,23.60
2015,07,03,09,42,23.60
2015,07,03,09,43,23.50
2015,07,03,09,44,23.30
2015,07,03,09,45,23.20
2015,07,03,09,46,23.20
2015,07,03,09,47,23.20
2015,07,03,09,48,23.30
2015,07,03,09,49,23.30
2015,07,03,09,50,23.40
2015,07,03,09,51,23.50
2015,07,03,09,52,23.60
2015,07,03,09,53,23.70
2015,07,03,09,54,23.70
2015,07,03,09,55,23.70
2015,07,03,09,56,23.90
2015,07,03,09,57,24.00
2015,07,03,09,58,24.10
2015,07,03,09,59,24.10
2015,07,03,10,00,24.20
2015,07,03,10,01,24.30
2015,07,03,10,02,24.40
2015,07,03,10,03,24.50
2015,07,03,10,04,24.50
2015,07,03,10,05,24.60
2015,07,03,10,06,24.70
2015,07,03,10,07,24.70
2015,07,03,10,08,24.70
2015,07,03,10,09,24.70
2015,07,03,10,10,24.70
2015,07,03,10,11,24.70
2015,07,03,10,12,24.70
2015,07,03,10,13,24.60
2015,07,03,10,14,24.50
2015,07,03,10,15,24.30
2015,07,03,10,16,24.20
2015,07,03,10,17,24.20
2015,07,03,10,18,24.10
2015,07,03,10,19,24.10
2015,07,03,10,20,24.20
2015,07,03,10,21,24.30
2015,07,03,10,22,24.40
2015,07,03,10,23,24.50
2015,07,03,10,24,24.60
2015,07,03,10,25,24.70
2015,07,03,10,26,24.80
2015,07,03,10,27,24.80
2015,07,03,10,28,24.80
2015,07,03,10,29,24.90
2015,07,03,10,30,24.90
2015,07,03,10,31,24.90
2015,07,03,10,32,25.00
2015,07,03,10,33,25.00
2015,07,03,10,34,24.90
2015,07,03,10,35,25.00
2015,07,03,10,36,25.10
2015,07,03,10,37,25.10
2015,07,03,10,38,25.10
2015,07,03,10,39,25.10
2015,07,03,10,40,25.20
2015,07,03,10,41,25.30
2015,07,03,10,42,25.40
2015,07,03,10,43,25.40
2015,07,03,10,44,25.60
2015,07,03,10,45,25.60
2015,07,03,10,46,25.60
2015,07,03,10,47,25.50
2015,07,03,10,48,25.40
2015,07,03,10,49,25.40
2015,07,03,10,50,25.40
2015,07,03,10,51,25.50
2015,07,03,10,52,25.50
2015,07,03,10,53,25.60
2015,07,03,10,54,25.60
2015,07,03,10,55,25.60
2015,07,03,10,56,25.50
2015,07,03,10,57,25.40
2015,07,03,10,58,25.40
2015,07,03,10,59,25.40
2015,07,03,11,00,25.30
2015,07,03,11,01,25.10
2015,07,03,11,02,25.00
2015,07,03,11,03,25.10
2015,07,03,11,04,25.30
2015,07,03,11,05,25.40
2015,07,03,11,06,25.50
2015,07,03,11,07,25.60
2015,07,03,11,08,25.70
2015,07,03,11,09,25.70
2015,07,03,11,10,25.60
2015,07,03,11,11,25.50
2015,07,03,11,12,25.50
2015,07,03,11,13,25.40
2015,07,03,11,14,25.40
2015,07,03,11,15,25.40
2015,07,03,11,16,25.40
2015,07,03,11,17,25.40
2015,07,03,11,18,25.50
2015,07,03,11,19,25.60
2015,07,03,11,20,25.70
2015,07,03,11,21,25.80
2015,07,03,11,22,25.80
2015,07,03,11,23,25.90
2015,07,03,11,24,25.90
2015,07,03,11,25,25.90
2015,07,03,11,26,25.90
2015,07,03,11,27,25.90
2015,07,03,11,28,25.90
2015,07,03,11,29,26.00
2015,07,03,11,30,26.00
2015,07,03,11,31,25.90
2015,07,03,11,32,25.90
2015,07,03,11,33,25.90
2015,07,03,11,34,26.00
2015,07,03,11,35,26.00
2015,07,03,11,36,26.00
2015,07,03,11,37,26.00
2015,07,03,11,38,26.00
2015,07,03,11,39,26.10
2015,07,03,11,40,26.10
2015,07,03,11,41,26.10
2015,07,03,11,42,26.00
2015,07,03,11,43,26.00
2015,07,03,11,44,25.90
2015,07,03,11,45,25.90
2015,07,03,11,46,25.90
2015,07,03,11,47,26.00
2015,07,03,11,48,26.00
2015,07,03,11,49,26.00
2015,07,03,11,50,26.00
2015,07,03,11,51,26.00
2015,07,03,11,52,26.00
2015,07,03,11,53,25.90
2015,07,03,11,54,26.00
2015,07,03,11,55,26.00
2015,07,03,11,56,26.00
2015,07,03,11,57,26.00
2015,07,03,11,58,26.00
2015,07,03,11,59,26.10
2015,07,03,12,00,26.20
2015,07,03,12,01,26.40
2015,07,03,12,02,26.50
2015,07,03,12,03,26.70
2015,07,03,12,04,26.70
2015,07,03,12,05,26.60
2015,07,03,12,06,26.60
2015,07,03,12,07,26.60
2015,07,03,12,08,26.70
2015,07,03,12,09,26.70
2015,07,03,12,10,26.80
2015,07,03,12,11,26.80
2015,07,03,12,12,26.70
2015,07,03,12,13,26.70
2015,07,03,12,14,26.70
2015,07,03,12,15,26.70
2015,07,03,12,16,26.80
2015,07,03,12,17,26.70
2015,07,03,12,18,26.70
2015,07,03,12,19,26.70
2015,07,03,12,20,26.60
2015,07,03,12,21,26.50
2015,07,03,12,22,26.40
2015,07,03,12,23,26.40
2015,07,03,12,24,26.50
2015,07,03,12,25,26.70
2015,07,03,12,26,26.80
2015,07,03,12,27,26.90
2015,07,03,12,28,27.10
2015,07,03,12,29,27.20
2015,07,03,12,30,27.20
2015,07,03,12,31,27.30
2015,07,03,12,32,27.30
2015,07,03,12,33,27.40
2015,07,03,12,34,27.60
2015,07,03,12,35,27.70
2015,07,03,12,36,27.70
2015,07,03,12,37,27.70
2015,07,03,12,38,27.80
2015,07,03,12,39,27.70
2015,07,03,12,40,27.50
2015,07,03,12,41,27.40
2015,07,03,12,42,27.50
2015,07,03,12,43,27.60
2015,07,03,12,44,27.50
2015,07,03,12,45,27.40
2015,07,03,12,46,27.30
2015,07,03,12,47,27.30
2015,07,03,12,48,27.30
2015,07,03,12,49,27.40
2015,07,03,12,50,27.50
2015,07,03,12,51,27.50
2015,07,03,12,52,27.60
2015,07,03,12,53,27.70
2015,07,03,12,54,27.80
2015,07,03,12,55,27.90
2015,07,03,12,56,27.90
2015,07,03,12,57,28.00
2015,07,03,12,58,28.10
2015,07,03,12,59,28.20
2015,07,03,13,00,28.20
2015,07,03,13,01,28.20
2015,07,03,13,02,28.10
2015,07,03,13,03,28.10
2015,07,03,13,04,28.10
2015,07,03,13,05,28.10
2015,07,03,13,06,27.90
2015,07,03,13,07,27.80
2015,07,03,13,08,27.70
2015,07,03,13,09,27.70
2015,07,03,13,10,27.60
2015,07,03,13,11,27.60
2015,07,03,13,12,27.60
2015,07,03,13,13,27.70
2015,07,03,13,14,27.80
2015,07,03,13,15,27.70
2015,07,03,13,16,27.70
2015,07,03,13,17,27.60
2015,07,03,13,18,27.60
2015,07,03,13,19,27.60
2015,07,03,13,20,27.60
2015,07,03,13,21,27.60
2015,07,03,13,22,27.60
2015,07,03,13,23,27.60
2015,07,03,13,24,27.40
2015,07,03,13,25,27.30
2015,07,03,13,26,27.30
2015,07,03,13,27,27.30
2015,07,03,13,28,27.30
2015,07,03,13,29,27.30
2015,07,03,13,30,27.30
2015,07,03,13,31,27.30
2015,07,03,13,32,27.30
2015,07,03,13,33,27.20
2015,07,03,13,34,27.10
2015,07,03,13,35,27.10
2015,07,03,13,36,27.20
2015,07,03,13,37,27.30
2015,07,03,13,38,27.50
2015,07,03,13,39,27.60
2015,07,03,13,40,27.60
2015,07,03,13,41,27.70
2015,07,03,13,42,27.80
2015,07,03,13,43,27.90
2015,07,03,13,44,28.10
2015,07,03,13,45,28.20
2015,07,03,13,46,28.30
2015,07,03,13,47,28.30
2015,07,03,13,48,28.40
2015,07,03,13,49,28.40
2015,07,03,13,50,28.40
2015,07,03,13,51,28.60
2015,07,03,13,52,28.60
2015,07,03,13,53,28.60
2015,07,03,13,54,28.70
2015,07,03,13,55,28.80
2015,07,03,13,56,28.80
2015,07,03,13,57,28.80
2015,07,03,13,58,28.80
2015,07,03,13,59,28.90
2015,07,03,14,00,28.90
2015,07,03,14,01,28.90
2015,07,03,14,02,28.90
2015,07,03,14,03,28.80
2015,07,03,14,04,28.70
2015,07,03,14,05,28.60
2015,07,03,14,06,28.60
2015,07,03,14,07,28.60
2015,07,03,14,08,28.50
2015,07,03,14,09,28.50
2015,07,03,14,10,28.60
2015,07,03,14,11,28.70
2015,07,03,14,12,28.70
2015,07,03,14,13,28.80
2015,07,03,14,14,28.70
2015,07,03,14,15,28.70
2015,07,03,14,16,28.60
2015,07,03,14,17,28.60
2015,07,03,14,18,28.70
2015,07,03,14,19,28.90
2015,07,03,14,20,29.00
2015,07,03,14,21,29.10
2015,07,03,14,22,29.20
2015,07,03,14,23,29.10
2015,07,03,14,24,29.00
2015,07,03,14,25,28.90
2015,07,03,14,26,28.90
2015,07,03,14,27,28.90
2015,07,03,14,28,28.90
2015,07,03,14,29,28.80
2015,07,03,14,30,28.70
2015,07,03,14,31,28.70
2015,07,03,14,32,28.70
2015,07,03,14,33,28.70
2015,07,03,14,34,28.70
2015,07,03,14,35,28.80
2015,07,03,14,36,28.90
2015,07,03,14,37,29.00
2015,07,03,14,38,29.10
2015,07,03,14,39,29.20
2015,07,03,14,40,29.30
2015,07,03,14,41,29.40
2015,07,03,14,42,29.50
2015,07,03,14,43,29.40
2015,07,03,14,44,29.30
2015,07,03,14,45,29.10
2015,07,03,14,46,29.00
2015,07,03,14,47,29.10
2015,07,03,14,48,29.10
2015,07,03,14,49,29.10
2015,07,03,14,50,29.20
2015,07,03,14,51,29.30
2015,07,03,14,52,29.40
2015,07,03,14,53,29.40
2015,07,03,14,54,29.40
2015,07,03,14,55,29.50
2015,07,03,14,56,29.60
2015,07,03,14,57,29.60
2015,07,03,14,58,29.60
2015,07,03,14,59,29.70
2015,07,03,15,00,29.70
2015,07,03,15,01,29.70
2015,07,03,15,02,29.70
2015,07,03,15,03,29.60
2015,07,03,15,04,29.50
2015,07,03,15,05,29.60
2015,07,03,15,06,29.60
2015,07,03,15,07,29.70
2015,07,03,15,08,29.70
2015,07,03,15,09,29.70
2015,07,03,15,10,29.70
2015,07,03,15,11,29.70
2015,07,03,15,12,29.70
2015,07,03,15,13,29.70
2015,07,03,15,14,29.60
2015,07,03,15,15,29.60
2015,07,03,15,16,29.50
2015,07,03,15,17,29.40
2015,07,03,15,18,29.40
2015,07,03,15,19,29.30
2015,07,03,15,20,29.20
2015,07,03,15,21,29.10
2015,07,03,15,22,29.10
2015,07,03,15,23,29.00
2015,07,03,15,24,28.90
2015,07,03,15,25,28.90
2015,07,03,15,26,28.90
2015,07,03,15,27,28.80
2015,07,03,15,28,28.80
2015,07,03,15,29,28.80
2015,07,03,15,30,28.80
2015,07,03,15,31,28.90
2015,07,03,15,32,28.90
2015,07,03,15,33,29.00
2015,07,03,15,34,29.10
2015,07,03,15,35,29.20
2015,07,03,15,36,29.30
2015,07,03,15,37,29.30
2015,07,03,15,38,29.30
2015,07,03,15,39,29.30
2015,07,03,15,40,29.20
2015,07,03,15,41,29.10
2015,07,03,15,42,29.10
2015,07,03,15,43,29.00
2015,07,03,15,44,28.90
2015,07,03,15,45,28.80
2015,07,03,15,46,28.80
2015,07,03,15,47,28.80
2015,07,03,15,48,28.90
2015,07,03,15,49,28.90
2015,07,03,15,50,28.90
2015,07,03,15,51,28.90
2015,07,03,15,52,28.90
2015,07,03,15,53,28.90
2015,07,03,15,54,29.00
2015,07,03,15,55,29.10
2015,07,03,15,56,29.10
2015,07,03,15,57,29.00
2015,07,03,15,58,29.10
2015,07,03,15,59,29.20
2015,07,03,16,00,29.20
2015,07,03,16,01,29.30
2015,07,03,16,02,29.30
2015,07,03,16,03,29.50
2015,07,03,16,04,29.50
2015,07,03,16,05,29.50
2015,07,03,16,06,29.50
2015,07,03,16,07,29.40
2015,07,03,16,08,29.40
2015,07,03,16,09,29.40
2015,07,03,16,10,29.40
2015,07,03,16,11,29.40
2015,07,03,16,12,29.50
2015,07,03,16,13,29.50
2015,07,03,16,14,29.40
2015,07,03,16,15,29.40
2015,07,03,16,16,29.60
2015,07,03,16,17,29.70
2015,07,03,16,18,29.90
2015,07,03,16,19,30.00
2015,07,03,16,20,30.10
2015,07,03,16,21,30.20
2015,07,03,16,22,30.30
2015,07,03,16,23,30.40
2015,07,03,16,24,30.40
2015,07,03,16,25,30.20
2015,07,03,16,26,30.00
2015,07,03,16,27,29.70
2015,07,03,16,28,29.60
2015,07,03,16,29,29.50
2015,07,03,16,30,29.40
2015,07,03,16,31,29.50
2015,07,03,16,32,29.30
2015,07,03,16,33,29.20
2015,07,03,16,34,29.20
2015,07,03,16,35,29.20
2015,07,03,16,36,29.20
2015,07,03,16,37,29.20
2015,07,03,16,38,29.20
2015,07,03,16,39,29.20
2015,07,03,16,40,29.20
2015,07,03,16,41,29.20
2015,07,03,16,42,29.10
2015,07,03,16,43,29.00
2015,07,03,16,44,28.90
2015,07,03,16,45,28.90
2015,07,03,16,46,28.90
2015,07,03,16,47,28.90
2015,07,03,16,48,29.00
2015,07,03,16,49,29.10
2015,07,03,16,50,29.10
2015,07,03,16,51,29.10
2015,07,03,16,52,29.00
2015,07,03,16,53,28.90
2015,07,03,16,54,28.90
2015,07,03,16,55,28.90
2015,07,03,16,56,28.80
2015,07,03,16,57,28.80
2015,07,03,16,58,28.70
2015,07,03,16,59,28.70
2015,07,03,17,00,28.80
2015,07,03,17,01,28.80
2015,07,03,17,02,28.80
2015,07,03,17,03,28.80
2015,07,03,17,04,28.80
2015,07,03,17,05,28.70
2015,07,03,17,06,28.70
2015,07,03,17,07,28.80
2015,07,03,17,08,28.70
2015,07,03,17,09,28.70
2015,07,03,17,10,28.70
2015,07,03,17,11,28.70
2015,07,03,17,12,28.70
2015,07,03,17,13,28.70
2015,07,03,17,14,28.70
2015,07,03,17,15,28.70
2015,07,03,17,16,28.70
2015,07,03,17,17,28.60
2015,07,03,17,18,28.60
2015,07,03,17,19,28.60